Weather History for Richmond, VA

Change the Weather History Date:

Wednesday, November 2, 2011

  Actual Average Record
Temperature  
Mean Temperature 50 °F 55 °F  
Max Temperature 63 °F 66 °F 84 °F (1950)
Min Temperature 37 °F 43 °F 23 °F (1930)
Degree Days  
Heating Degree Days 15 11  
Month to date heating degree days 29 21  
Since 1 July heating degree days 243 254  
Cooling Degree Days 0 0  
Month to date cooling degree days 0 0  
Year to date cooling degree days 1898 1543  
Moisture  
Dew Point 39 °F    
Average Humidity 66    
Maximum Humidity 93    
Minimum Humidity 39    
Precipitation  
Precipitation 0.00 in 0.11 in 1.66 in (1956)
Month to date precipitation T 0.22  
Year to date precipitation 41.33 37.32  
Snow  
Snow 0.00 in 0.00 in 0.00 in (2002)
Month to date snowfall 0.0 0.0  
Since 1 July snowfall 0.0 0.0  
Snow Depth 0.00 in    
Sea Level Pressure  
Sea Level Pressure 30.37 in    
Wind  
Wind Speed 1 mph (NW)    
Max Wind Speed 7 mph    
Max Gust Speed 9 mph    
Visibility 9 miles    
Events      
T = Trace of Precipitation, MM = Missing Value Source: NWS Daily Summary

Daily Weather History Graph

Daily Weather History Graph

Search for Another Location

Airport:

Trip Planner

Search our weather history database for the weather conditions in past years. The results will help you decide how hot, cold, wet, or windy it might be!

Date:

Astronomy

Nov. 02, 2011 Rise Set
Actual Time 7:34 AM EDT 6:10 PM EDT
Civil Twilight 7:07 AM EDT 6:37 PM EDT
Nautical Twilight 6:36 AM EDT 7:08 PM EDT
Astronomical Twilight 6:06 AM EDT 7:38 PM EDT
Moon 1:53 PM EDT (11/2) No Moon Set
Length of Visible Light 11h 29m
Length of Day
10h 35m
Waxing Crescent, 50% of the Moon is Illuminated
Nov 2
Waxing Crescent
Nov 2
First Quarter
Nov 10
Full
Nov 18
Last Quarter
Nov 25
New

Hourly Weather History & Observations

Time (EDT) Temp. Windchill Dew Point Humidity Pressure Visibility Wind Dir Wind Speed Gust Speed Precip Events Conditions
12:54 AM 41.0 °F 39.0 °F 39.0 °F 93% 30.37 in 7.0 mi NNW 3.5 mph - N/A   Clear
1:54 AM 41.0 °F - 39.0 °F 93% 30.37 in 7.0 mi Calm Calm - N/A   Clear
2:54 AM 39.0 °F - 37.9 °F 96% 30.37 in 9.0 mi Calm Calm - N/A   Clear
3:54 AM 39.9 °F - 37.0 °F 89% 30.37 in 10.0 mi Calm Calm - N/A   Clear
4:54 AM 39.0 °F 36.8 °F 36.0 °F 89% 30.39 in 9.0 mi WNW 3.5 mph - N/A   Clear
5:54 AM 39.0 °F - 37.0 °F 93% 30.40 in 7.0 mi Calm Calm - N/A   Clear
6:54 AM 37.9 °F - 36.0 °F 93% 30.41 in 7.0 mi Calm Calm - N/A   Clear
7:54 AM 37.9 °F - 36.0 °F 93% 30.43 in 6.0 mi Calm Calm - N/A   Clear
8:54 AM 44.1 °F 42.5 °F 39.9 °F 85% 30.46 in 9.0 mi NNW 3.5 mph - N/A   Clear
9:54 AM 51.1 °F - 42.1 °F 71% 30.45 in 10.0 mi Calm Calm - N/A   Clear
10:54 AM 54.0 °F - 42.1 °F 64% 30.45 in 10.0 mi Calm Calm - N/A   Clear
11:54 AM 57.9 °F - 39.9 °F 51% 30.44 in 10.0 mi Calm Calm - N/A   Clear
12:54 PM 60.1 °F - 37.0 °F 42% 30.40 in 10.0 mi Calm Calm - N/A   Partly Cloudy
1:54 PM 60.8 °F - 37.4 °F 42% 30.36 in 10.0 mi Calm Calm - N/A   Partly Cloudy
2:54 PM 61.0 °F - 36.0 °F 39% 30.35 in 10.0 mi Calm Calm - N/A   Partly Cloudy
3:54 PM 62.1 °F - 37.0 °F 39% 30.34 in 10.0 mi Calm Calm - N/A   Partly Cloudy
4:54 PM 61.0 °F - 37.0 °F 41% 30.34 in 10.0 mi Calm Calm - N/A   Partly Cloudy
5:54 PM 59.0 °F - 37.0 °F 44% 30.33 in 10.0 mi Calm Calm - N/A   Partly Cloudy
6:54 PM 52.0 °F - 43.0 °F 71% 30.34 in 10.0 mi Calm Calm - N/A   Scattered Clouds
7:54 PM 48.0 °F - 42.1 °F 80% 30.32 in 10.0 mi Calm Calm - N/A   Partly Cloudy
8:54 PM 48.0 °F - 39.9 °F 74% 30.32 in 10.0 mi Calm Calm - N/A   Partly Cloudy
9:54 PM 46.0 °F 43.9 °F 39.0 °F 76% 30.32 in 10.0 mi SSE 4.6 mph - N/A   Clear
10:54 PM 45.0 °F - 39.0 °F 80% 30.31 in 10.0 mi Calm Calm - N/A   Clear
11:54 PM 43.0 °F 41.3 °F 39.0 °F 86% 30.30 in 10.0 mi SSE 3.5 mph - N/A   Partly Cloudy